sat.trackr.live / text

‹ back to catalog

GEESAT-2 10

NORAD 58914 · 2024-023K

PAYLOAD ACTIVE UNKNOWN

§ Identity

Operator
Country
PRC
Launch date
2024-02-02
Launch site
XICLF
Launch vehicle
Mass (kg)
RCS (m²)

External: N2YO · Heavens-Above · Gunter

§ Orbital elements

Epoch: 2026-09-22T22:47:27.617280Z

Period
97.07 min
Inclination
49.9940°
Eccentricity
0.0009635
Mean motion
14.83422503 rev/d
Perigee alt
611.8 km
Apogee alt
625.3 km
Semi-major
6,996.7 km
B*
1.5199e-4
RAAN
261.0978°
Arg perigee
8.3713°
Mean anomaly
351.7384°
Rev number
14,342

§ Raw data

GEESAT-2 101 58914U 24023K   26265.94962520  .00001034  00000+0  15199-3 0  99912 58914  49.9940 261.0978 0009635   8.3713 351.7384 14.83422503143429

JSON: /api/v1/satellites/58914 · /tle

For live sub-satellite position, see the globe view (requires WebGL).

§ Visibility from observer

Set your observer location to see the next 7 days of passes ≥ 10°. The values pass through the URL so the page stays shareable.

No JS? Fill the form by hand. The geolocation button needs JavaScript.